TimeCDT,TemperatureF,Dew PointF,Humidity,Sea Level PressureIn,VisibilityMPH,Wind Direction,Wind SpeedMPH,Gust SpeedMPH,PrecipitationIn,Events,Conditions,WindDirDegrees,DateUTC
12:54 AM,48.9,33.1,54,30.12,10.0,NW,4.6,-,N/A,,Clear,320,2013-05-12 05:54:00
1:54 AM,45.0,35.1,68,30.12,10.0,West,4.6,-,N/A,,Clear,280,2013-05-12 06:54:00
2:54 AM,45.0,35.1,68,30.12,10.0,WNW,3.5,-,N/A,,Clear,300,2013-05-12 07:54:00
3:54 AM,43.0,35.1,74,30.13,10.0,WNW,3.5,-,N/A,,Clear,290,2013-05-12 08:54:00
4:54 AM,42.1,34.0,73,30.13,10.0,WNW,4.6,-,N/A,,Clear,290,2013-05-12 09:54:00
5:54 AM,41.0,35.1,79,30.15,10.0,West,4.6,-,N/A,,Clear,260,2013-05-12 10:54:00
6:54 AM,44.1,37.0,76,30.17,10.0,West,3.5,-,N/A,,Clear,270,2013-05-12 11:54:00
7:54 AM,48.9,34.0,56,30.18,10.0,NNW,8.1,-,N/A,,Clear,330,2013-05-12 12:54:00
8:54 AM,52.0,30.0,43,30.19,10.0,NW,9.2,17.3,N/A,,Clear,320,2013-05-12 13:54:00
9:54 AM,54.0,28.0,37,30.20,10.0,NNW,9.2,-,N/A,,Clear,340,2013-05-12 14:54:00
10:54 AM,55.9,28.9,36,30.20,10.0,NW,11.5,18.4,N/A,,Clear,310,2013-05-12 15:54:00
11:54 AM,55.9,30.0,37,30.21,10.0,Variable,6.9,20.7,N/A,,Clear,0,2013-05-12 16:54:00
12:54 PM,57.9,32.0,37,30.19,10.0,NW,12.7,-,N/A,,Clear,310,2013-05-12 17:54:00
1:54 PM,59.0,32.0,36,30.19,10.0,NNW,12.7,-,N/A,,Clear,330,2013-05-12 18:54:00
2:54 PM,61.0,32.0,34,30.18,10.0,WNW,11.5,-,N/A,,Scattered Clouds,290,2013-05-12 19:54:00
3:54 PM,60.1,30.9,33,30.16,10.0,WNW,9.2,17.3,N/A,,Clear,300,2013-05-12 20:54:00
4:54 PM,61.0,32.0,34,30.16,10.0,West,12.7,17.3,N/A,,Scattered Clouds,280,2013-05-12 21:54:00
5:54 PM,57.9,30.0,35,30.15,10.0,NW,9.2,-,N/A,,Partly Cloudy,320,2013-05-12 22:54:00
6:54 PM,57.9,32.0,37,30.15,10.0,WNW,6.9,-,N/A,,Clear,300,2013-05-12 23:54:00
7:54 PM,54.0,32.0,43,30.16,10.0,NNW,3.5,-,N/A,,Partly Cloudy,330,2013-05-13 00:54:00
8:54 PM,53.1,35.1,50,30.17,10.0,Calm,Calm,-,N/A,,Clear,0,2013-05-13 01:54:00
9:54 PM,46.9,37.0,68,30.19,10.0,Calm,Calm,-,N/A,,Clear,0,2013-05-13 02:54:00
10:54 PM,44.1,37.9,79,30.19,10.0,Calm,Calm,-,N/A,,Clear,0,2013-05-13 03:54:00
11:54 PM,44.1,39.0,82,30.19,10.0,Calm,Calm,-,N/A,,Clear,0,2013-05-13 04:54:00